[[{"header":{"parameterUnit":"m.s-1","parameterCategory":1,"la1":30.2991,"la2":30.254,"lo1":-89.0895,"lo2":-89.0444,"dy":0.0017,"dx":0.0017,"nx":28,"ny":28,"refTime":"2025-07-10T21:00:00:Z","depth":0,"parameterNumber":2,"parameterNumberName":"U-component_of_WINDS"},"data":[0,0,0,0,0,0,0,0,0,0,0,0,0,0,0,0,0,0,0,0,0,0,0,0,0,0,0,0,0,0,0,0,0,0,0,0,0,0,0,0,0,0,0,0,0,0,0,0,0,0,0,0,0,0,0,0,0,0,4.2477,4.2479,0,4.2604,4.2605,4.2607,4.2557,4.2554,4.2551,4.2548,4.2679,4.2685,4.2691,0,0,0,0,0,0,0,0,0,0,0,0,0,4.2191,4.2196,4.2477,4.2479,4.248,4.2603,4.2605,4.2607,4.2558,4.2554,4.2551,4.2547,4.2677,4.2684,4.2692,0,0,0,0,0,0,0,0,0,0,0,0,0,4.2316,4.2198,4.2477,4.2471,4.2471,4.2603,4.2605,4.2607,4.2558,4.2554,4.255,4.2545,4.2675,4.2684,4.2693,4.2839,0,0,4.2721,4.2725,0,0,0,0,0,0,0,0,4.2309,4.2327,4.247,4.2471,4.2472,4.256,4.2552,4.2685,4.256,4.2525,4.2548,4.2543,4.2643,4.2655,4.2688,4.2845,4.2851,4.2722,4.2728,4.2732,4.2735,0,0,0,0,0,0,0,4.2301,4.2321,4.2527,4.2472,4.2473,4.2461,4.2474,4.2577,4.2608,4.2528,4.2525,4.254,4.2643,4.2679,4.2691,4.2852,4.2722,4.273,4.2736,4.274,4.313,4.3134,0,0,0,0,0,0,4.2292,4.2314,4.2523,4.2531,4.2378,4.2469,4.2484,4.2536,4.2606,4.2613,4.2544,4.2538,4.2666,4.268,4.2695,4.2867,4.2732,4.2741,4.2746,4.3125,4.3131,4.3136,0,0,0,0,0,0,4.2286,4.2311,4.2518,4.2422,4.2447,4.2479,4.2538,4.2541,4.2577,4.2618,4.2623,4.2576,4.2663,4.2682,4.2802,4.2871,4.2745,4.2753,4.312,4.3127,4.3134,4.3214,0,0,0,0,0,0,4.2278,4.2309,4.2365,4.2423,4.2452,4.2624,4.2543,4.2547,4.2594,4.2586,4.2649,4.2656,4.2661,4.2789,4.2812,4.2881,4.2761,4.3113,4.3123,4.3131,4.3205,4.3223,4.3238,0,0,0,0,0,4.2268,4.2384,4.2369,4.2394,4.2524,4.2628,4.2644,4.2648,4.26,4.2656,4.2681,4.2654,4.286,4.2801,4.2827,4.2901,4.3109,4.312,4.3131,4.3198,4.3219,4.3238,0,0,0,0,0,0,4.2335,4.2392,4.2375,4.2514,4.2566,4.2619,4.2691,4.2671,4.2739,4.2729,4.2731,4.2745,4.2868,4.2897,4.283,4.3043,4.2977,4.2994,4.3019,4.304,4.3056,4.3046,4.2768,0,0,0,0,0,4.2366,4.2446,4.2491,4.261,4.2636,4.2659,4.2705,4.2702,4.2757,4.2779,4.2813,4.2867,4.2943,4.2994,4.3067,4.3209,4.322,4.3272,4.3289,4.3302,4.3315,4.3388,4.3411,4.3171,4.3171,4.3171,0,0,4.2431,4.2472,4.2523,4.2624,4.2664,4.2745,4.2678,4.2768,4.2828,4.2793,4.2906,4.2934,4.2994,4.3124,4.3184,4.3152,4.3384,4.3316,4.3326,4.3332,4.3402,4.3424,4.3445,4.3179,4.3177,4.3176,0,0,4.259,4.2631,4.2731,4.2772,4.2833,4.2847,4.2871,4.2926,4.2942,4.3057,4.303,4.3101,4.3234,4.3276,4.3315,4.3486,4.3462,4.351,4.3595,4.3667,4.3685,4.3702,4.3759,4.378,4.3524,4.3524,4.3525,0,4.2663,4.2785,4.2786,4.2876,4.292,4.289,4.2991,4.3031,4.3113,4.3143,4.3107,4.3269,4.3308,4.3446,4.3487,4.3521,4.3546,4.3503,4.3683,4.3699,4.3715,4.377,4.3792,4.353,4.3529,4.3528,4.3528,0,4.2869,4.2954,4.3028,4.3106,4.3158,4.3254,4.3267,4.3321,4.3313,4.333,4.3445,4.349,4.3569,4.3602,4.3597,4.3738,4.3716,4.3682,4.3615,4.3743,4.3794,4.3815,4.3537,4.3535,4.3534,4.3532,0,0,4.3076,4.315,4.3177,4.3209,4.3273,4.3338,4.3431,4.3507,4.3551,4.3608,4.3684,4.3795,4.3762,4.3806,4.3805,4.3868,4.3996,4.3825,4.3826,4.3852,4.415,4.4173,4.4198,4.3981,4.3985,4.3988,4.4143,0,4.3237,4.3399,4.34,4.3549,4.3625,4.3596,4.3677,4.3723,4.3741,4.3808,4.3828,4.3905,4.3857,4.3883,4.3944,4.3967,4.4055,4.3956,4.4049,4.4052,4.4032,4.4225,4.4251,4.4396,4.4164,4.4167,4.417,0,4.3447,4.3508,4.3664,4.3712,4.3744,4.3816,4.3884,4.3949,4.4,4.4008,4.4056,4.4044,4.4137,4.4068,4.4194,4.4127,4.4165,4.4182,4.4187,4.4194,4.4117,4.4234,4.4443,4.4463,4.4202,4.4199,4.4197,0,4.3577,4.3699,4.3806,4.3836,4.3896,4.3946,4.3974,4.4021,4.4065,4.4125,4.4153,4.4223,4.4261,4.4315,4.4321,4.4272,4.4447,4.438,4.4454,4.4454,4.4491,4.4488,4.4705,4.452,4.452,4.452,4.4519,0,4.3755,4.3851,4.3864,4.3931,4.4035,4.4036,4.414,4.4163,4.4204,4.4273,4.4253,4.4318,4.4324,4.4391,4.4397,4.4497,4.4516,4.4523,4.4523,4.4524,4.4522,4.4547,4.4536,4.4525,4.4524,4.4523,4.4522,0,4.3918,4.3931,4.4046,4.4092,4.4106,4.4181,4.422,4.4282,4.4297,4.4384,4.4404,4.4427,4.4504,4.4516,4.4607,4.4611,4.473,4.4722,4.4713,4.471,4.4782,4.4774,4.5021,4.5051,4.4849,4.4851,4.4853,0,4.4029,4.4101,4.4154,4.4198,4.4228,4.43,4.4344,4.4346,4.4393,4.4454,4.4508,4.4583,4.4642,4.4765,4.479,4.4858,4.4849,4.4931,4.4859,4.4855,4.4846,4.484,4.4845,4.4944,4.4946,4.4948,4.4949,0,4.4224,4.4226,4.4291,4.4357,4.441,4.4462,4.4512,4.4549,4.4557,4.461,4.4687,4.4733,4.4824,4.4897,4.4963,4.4991,4.4971,4.4971,4.4991,4.4991,4.4981,4.4984,4.4747,4.4965,4.4964,4.4963,4.4962,4.4961,4.4363,4.4423,4.4469,4.454,4.4577,4.4623,4.4682,4.4703,4.4767,4.484,4.4838,4.4921,4.4967,4.5055,4.5086,4.5151,4.5124,4.5154,4.5161,4.5168,4.5173,4.4973,4.5164,4.5163,4.5163,4.5162,4.5162,0,4.4553,4.458,4.4646,4.4714,4.4769,4.4745,4.4797,4.4845,4.4919,4.4963,4.5021,4.5107,4.5177,4.5206,4.5274,4.5319,4.5312,4.5337,4.5332,4.5338,4.5195,4.5169,4.5342,4.5342,4.5342,4.5342,4.5342,4.5341,4.4659,4.476,4.4767,4.4884,4.491,4.4991,4.5023,4.5064,4.5098,4.5195,4.5253,4.5271,4.5308,4.5378,4.5439,4.5446,4.547,4.5499,4.5501,4.5367,4.5349,4.5331,4.5306,4.5505,4.5505,4.5638,4.564,4.564]},{"header":{"parameterUnit":"m.s-1","parameterCategory":1,"la1":30.2991,"la2":30.254,"lo1":-89.0895,"lo2":-89.0444,"dy":0.0017,"dx":0.0017,"nx":28,"ny":28,"refTime":"2025-07-10T21:00:00:Z","depth":0,"parameterNumber":3,"parameterNumberName":"V-component_of_WINDS"},"data":[0,0,0,0,0,0,0,0,0,0,0,0,0,0,0,0,0,0,0,0,0,0,0,0,0,0,0,0,0,0,0,0,0,0,0,0,0,0,0,0,0,0,0,0,0,0,0,0,0,0,0,0,0,0,0,0,0,0,2.4796,2.4797,0,2.4872,2.4873,2.4874,2.4834,2.4832,2.483,2.4828,2.4904,2.4908,2.4912,0,0,0,0,0,0,0,0,0,0,0,0,0,2.4614,2.4618,2.4796,2.4797,2.4798,2.4872,2.4873,2.4874,2.4834,2.4831,2.4829,2.4827,2.4903,2.4908,2.4913,0,0,0,0,0,0,0,0,0,0,0,0,0,2.4692,2.4619,2.4796,2.4787,2.4787,2.4872,2.4873,2.4875,2.4835,2.4831,2.4828,2.4825,2.4902,2.4907,2.4913,2.5011,0,0,2.4931,2.4934,0,0,0,0,0,0,0,0,2.4688,2.4699,2.4787,2.4788,2.4788,2.484,2.4837,2.492,2.4835,2.4816,2.4828,2.4824,2.4886,2.4893,2.4914,2.5015,2.5018,2.4932,2.4936,2.4938,2.494,0,0,0,0,0,0,0,2.4682,2.4695,2.4826,2.4789,2.4789,2.4778,2.4786,2.4853,2.4867,2.4818,2.4815,2.4825,2.4885,2.4908,2.4915,2.5019,2.4932,2.4937,2.4941,2.4943,2.5203,2.5206,0,0,0,0,0,0,2.4678,2.4691,2.4824,2.4829,2.4729,2.4784,2.4793,2.4827,2.4866,2.487,2.4827,2.4823,2.4899,2.4908,2.4918,2.5034,2.4938,2.4944,2.4947,2.52,2.5204,2.5207,0,0,0,0,0,0,2.4674,2.469,2.4821,2.4759,2.4775,2.4791,2.4829,2.483,2.4853,2.4874,2.4876,2.4848,2.4897,2.4909,2.4988,2.5036,2.4946,2.4952,2.5196,2.5201,2.5206,2.5269,0,0,0,0,0,0,2.4669,2.4689,2.4727,2.476,2.4778,2.4891,2.4832,2.4833,2.4863,2.4858,2.4894,2.4897,2.4896,2.4979,2.4994,2.5043,2.4956,2.5192,2.5198,2.5204,2.5263,2.5276,2.5287,0,0,0,0,0,2.4662,2.4742,2.4729,2.4745,2.4827,2.4894,2.4904,2.4902,2.4867,2.4905,2.4918,2.4896,2.5029,2.4988,2.5004,2.5055,2.5189,2.5196,2.5204,2.5257,2.5273,2.5286,0,0,0,0,0,0,2.4714,2.4746,2.4732,2.4825,2.4857,2.4887,2.4935,2.4919,2.4961,2.4954,2.4949,2.4957,2.5039,2.5055,2.5009,2.5151,2.5103,2.5114,2.5138,2.5154,2.5165,2.516,2.4961,0,0,0,0,0,2.4736,2.4789,2.4814,2.4893,2.491,2.492,2.4949,2.4944,2.4977,2.499,2.5009,2.5041,2.509,2.5123,2.5169,2.5264,2.5271,2.5308,2.5319,2.5329,2.5339,2.539,2.5406,2.5232,2.5232,2.5232,0,0,2.4783,2.4806,2.484,2.4904,2.4928,2.4982,2.4931,2.4991,2.503,2.4999,2.5075,2.5089,2.5125,2.5212,2.5252,2.5228,2.5388,2.5339,2.5346,2.5351,2.5399,2.5415,2.543,2.5237,2.5236,2.5236,0,0,2.4894,2.4918,2.4986,2.5011,2.5048,2.5054,2.5071,2.5103,2.5111,2.5187,2.5164,2.5211,2.5295,2.5321,2.5346,2.5465,2.5446,2.548,2.5543,2.5592,2.5606,2.5618,2.566,2.5676,2.549,2.549,2.549,0,2.4947,2.5028,2.5023,2.5084,2.5113,2.5086,2.5155,2.5179,2.5229,2.5249,2.5222,2.5326,2.5349,2.5441,2.547,2.5491,2.5508,2.5477,2.5605,2.5617,2.5628,2.5668,2.5684,2.5494,2.5494,2.5493,2.5493,0,2.5091,2.5147,2.5197,2.5247,2.528,2.5345,2.5349,2.5384,2.5375,2.5384,2.546,2.5485,2.5536,2.5557,2.555,2.5648,2.5632,2.5605,2.5556,2.5648,2.5686,2.5702,2.55,2.5498,2.5497,2.5496,0,0,2.5239,2.5283,2.5302,2.5323,2.5362,2.5405,2.5467,2.5516,2.5546,2.558,2.5632,2.5704,2.5678,2.5706,2.5701,2.5744,2.5836,2.5711,2.5712,2.5733,2.5945,2.5966,2.5984,2.5823,2.5826,2.5828,2.5942,0,2.5353,2.5463,2.546,2.5562,2.5613,2.5588,2.5642,2.567,2.568,2.5723,2.5733,2.5784,2.5746,2.5763,2.5804,2.5816,2.5879,2.5808,2.5871,2.5873,2.5863,2.6004,2.6026,2.6132,2.5957,2.5959,2.5961,0,2.5502,2.5541,2.5649,2.5678,2.5699,2.5748,2.5792,2.5835,2.5866,2.5869,2.5899,2.5887,2.5949,2.5898,2.5983,2.5935,2.596,2.597,2.5974,2.598,2.5923,2.6014,2.6166,2.6182,2.5984,2.5983,2.5981,0,2.5599,2.5679,2.5753,2.5772,2.5808,2.5843,2.5859,2.5888,2.5917,2.5955,2.5974,2.6019,2.6043,2.6078,2.6078,2.6041,2.6164,2.6113,2.6168,2.6168,2.6195,2.6194,2.6354,2.6211,2.6211,2.6211,2.621,0,2.5727,2.5793,2.5797,2.5842,2.5915,2.591,2.5982,2.5995,2.6021,2.6068,2.6048,2.6093,2.6089,2.6134,2.6134,2.6204,2.6215,2.6219,2.6218,2.6221,2.6221,2.6238,2.6231,2.6215,2.6214,2.6213,2.6212,0,2.5848,2.5853,2.5932,2.5959,2.5967,2.602,2.6043,2.6086,2.6092,2.6152,2.6165,2.6176,2.6227,2.623,2.6289,2.6289,2.6374,2.6365,2.6364,2.6362,2.6417,2.6412,2.6595,2.6618,2.646,2.6461,2.6462,0,2.5929,2.598,2.6012,2.6042,2.6061,2.611,2.6139,2.6135,2.6167,2.6206,2.6244,2.6293,2.6332,2.6415,2.6428,2.6473,2.6465,2.6525,2.6471,2.6472,2.6465,2.6462,2.6467,2.6536,2.6538,2.6539,2.6541,0,2.6073,2.6073,2.6117,2.6161,2.6197,2.6232,2.6264,2.6289,2.6289,2.6325,2.6377,2.6408,2.6468,2.6517,2.656,2.6576,2.6559,2.6557,2.6572,2.6576,2.6573,2.6575,2.6393,2.6553,2.6552,2.6551,2.6551,2.655,2.6177,2.622,2.6249,2.6298,2.6322,2.6352,2.6393,2.6405,2.6448,2.6497,2.6492,2.655,2.6578,2.6635,2.6654,2.6699,2.6678,2.67,2.6705,2.6711,2.6717,2.6566,2.6707,2.6706,2.6706,2.6706,2.6705,0,2.632,2.6337,2.6382,2.6427,2.6466,2.6445,2.6479,2.6512,2.6564,2.6592,2.6631,2.669,2.6737,2.6753,2.6798,2.6831,2.6824,2.6843,2.6841,2.6845,2.6733,2.6715,2.6848,2.6848,2.6848,2.6848,2.6848,2.6848,2.6399,2.647,2.6473,2.6556,2.6572,2.6629,2.665,2.6678,2.67,2.6767,2.6807,2.6816,2.6839,2.6886,2.6928,2.6931,2.6949,2.6971,2.6971,2.6867,2.6853,2.6839,2.6822,2.6975,2.6975,2.7079,2.708,2.7081]}]]